Location: Unspecified
(48.2082°N, 0.0000°E)
Time: 06:49:47
(UTC+00:00)

Transit 4A - Pass Details

Date: 21 June 2019
Orbit: 866 x 978 km, 66.8° (Epoch: 13 October)

Event Time Altitude Azimuth Distance (km) Brightness Sun altitude
Rises 16:03:31 0° 325° (NW) 3,689 11.4 36.8°
Reaches altitude 10° 16:06:12 10° 331° (NNW) 2,736 10.7 36.3°
Maximum altitude 16:12:27 52° 47° (NE) 1,195 8.6 35.3°
Drops below altitude 10° 16:18:33 10° 123° (ESE) 2,679 10.0 34.3°
Sets 16:21:09 0° 129° (SE) 3,606 10.6 33.8°
